Theta_e
305 304 304 305 306 307 308 308 308 309 308 309 316 311 318 320 319 320 320 321 321 322 325 323 325 327 333 335 340 341 346 348 348 344 344 337 345 348 348 357 352 351 353 353 352
304 304 304 304 305 306 306 307 307 308 308 309 316 311 314 317 319 321 321 321 321 321 326 326 323 325 326 332 335 342 345 346 344 343 343 341 343 345 352 354 354 354 351 354 354
303 304 304 304 304 304 305 306 307 307 308 309 316 312 311 315 325 322 324 324 321 323 325 323 322 324 326 327 332 340 344 344 342 344 345 348 350 349 351 355 353 353 351 355 354
302 303 303 304 304 304 305 305 306 306 307 309 317 312 310 319 315 325 325 325 322 324 324 323 324 327 328 328 330 343 342 343 342 347 343 348 344 341 349 351 350 349 350 353 353
302 302 303 303 304 304 304 305 306 306 306 308 316 311 316 324 320 319 321 323 322 323 323 322 325 329 330 328 330 339 341 342 343 341 342 343 342 344 350 349 347 346 348 350 352
302 302 303 303 304 304 304 305 305 306 307 308 315 309 319 317 318 320 321 324 324 323 321 321 325 327 327 325 329 339 343 344 344 344 343 341 342 341 351 349 348 347 347 347 347
303 303 303 303 303 304 304 305 306 306 308 310 313 317 324 316 321 324 325 324 324 323 319 322 323 326 325 324 327 340 343 342 344 344 348 349 352 350 346 349 349 349 348 347 346
303 303 303 303 303 304 304 306 306 308 311 316 312 322 319 321 327 321 321 322 322 323 322 321 324 324 323 324 327 334 333 336 338 345 347 346 357 348 348 349 349 350 349 348 346
303 302 302 302 303 304 305 306 307 315 322 314 320 323 325 329 330 326 324 322 321 322 322 321 323 322 324 328 324 328 333 339 339 339 345 348 354 348 345 347 348 348 348 348 346
304 302 302 302 303 303 304 307 312 326 321 324 325 324 322 329 330 328 326 326 319 319 320 320 320 325 324 324 327 332 337 339 339 336 342 350 352 350 347 347 348 347 347 347 347
303 303 302 302 302 303 304 307 313 321 331 329 326 325 325 327 331 326 327 325 320 318 318 320 321 323 327 326 327 330 338 340 339 334 350 351 352 352 349 350 350 349 350 349 348
303 303 303 302 303 303 309 309 313 318 319 323 328 328 328 328 331 330 325 325 319 317 319 320 323 325 329 330 329 328 335 340 340 336 337 351 354 351 351 352 351 351 352 351 351
304 304 303 302 303 313 308 311 315 315 319 321 322 324 324 325 329 328 320 322 320 319 320 320 322 328 331 331 331 327 337 338 340 340 340 349 351 350 351 350 348 349 351 350 352
304 304 303 302 307 306 309 312 314 314 319 322 323 323 324 325 326 327 323 323 319 319 320 320 323 326 331 331 330 325 328 338 342 342 344 342 353 346 347 346 344 347 348 350 351
304 303 303 303 305 310 309 311 310 318 330 326 326 326 322 324 325 322 324 320 321 320 319 321 324 325 327 330 328 326 327 327 342 341 338 345 345 348 340 340 339 344 348 348 350
304 303 305 305 305 305 307 306 316 321 330 330 325 324 324 324 325 324 321 320 321 321 320 321 324 325 327 328 326 327 328 324 326 327 335 340 338 339 344 343 340 339 348 346 348
303 302 305 305 306 308 308 310 319 324 324 327 322 323 322 323 325 325 320 319 320 320 320 322 323 324 326 324 324 326 321 323 325 325 325 322 342 339 342 341 338 339 348 346 347
303 303 305 306 305 306 307 311 324 324 322 323 323 324 324 324 323 326 321 320 318 319 318 320 322 324 324 323 323 322 321 323 328 332 328 325 329 329 340 341 337 339 346 346 346
303 305 308 308 309 309 309 312 317 321 324 324 322 323 324 324 325 325 321 321 321 317 320 320 321 324 323 325 322 323 324 323 327 328 330 329 331 338 339 340 338 337 340 342 345
306 308 310 312 311 310 310 311 315 319 320 321 322 323 323 323 323 324 324 321 322 320 317 318 320 322 324 324 324 324 323 327 323 329 331 330 334 335 344 342 340 339 337 337 342
307 309 312 314 312 309 309 310 314 314 315 320 321 321 321 322 323 324 325 323 322 322 317 318 320 322 324 323 324 327 327 324 323 325 328 329 330 331 342 341 342 340 339 335 339
305 308 314 314 316 313 313 313 313 313 314 316 319 320 321 323 323 325 324 323 323 323 321 318 317 321 322 323 323 325 325 324 326 327 325 326 331 334 334 334 339 340 340 335 335
304 306 309 311 317 317 317 318 316 315 313 315 318 320 321 323 325 327 328 329 324 324 323 321 317 322 322 322 324 326 325 327 322 322 327 330 332 333 330 331 330 330 330 331 334
305 312 311 310 309 317 316 319 320 321 320 320 320 320 322 324 325 326 326 327 328 324 333 326 317 320 323 323 325 326 326 326 324 325 325 329 332 333 334 333 332 331 331 332 335
306 313 310 312 312 309 313 319 323 324 324 322 320 326 327 324 325 329 334 333 332 332 330 320 320 323 323 325 328 327 327 326 326 325 328 326 331 330 334 333 332 332 334 335 334
311 311 308 308 307 313 312 320 318 318 322 323 328 328 327 326 333 334 332 331 331 328 326 318 322 323 325 326 326 326 328 328 329 328 329 327 334 330 332 334 332 333 332 333 336
307 308 308 308 310 312 314 316 315 315 323 327 327 327 329 327 326 326 326 326 329 329 327 322 322 323 325 327 328 330 330 328 330 335 329 327 326 332 334 333 331 330 329 330 331
Wind_Speed
24 27 27 28 27 27 27 27 27 27 29 30 24 23 21 15 14 12 8 21 9 11 9 16 12 11 8 2 4 5 5 4 4 7 3 8 11 12 8 16 10 5 12 21 32
25 26 27 28 29 28 28 28 28 28 30 30 22 20 18 15 12 13 34 29 20 18 7 7 5 1 1 4 6 5 5 10 6 5 6 7 17 13 9 15 13 17 17 28 32
26 27 28 28 29 30 29 29 29 29 29 30 21 19 15 12 4 9 10 13 24 19 14 12 10 2 5 6 7 6 10 10 8 5 9 8 6 2 19 14 26 23 23 26 29
28 29 28 28 29 30 31 31 30 29 30 28 20 18 11 4 6 5 8 6 23 20 14 4 2 3 3 3 5 6 16 15 7 8 7 8 6 5 5 12 21 21 22 23 22
29 29 30 29 29 30 31 32 31 30 31 25 18 14 3 2 11 23 19 10 19 22 15 4 1 2 4 3 6 16 12 16 14 11 9 8 6 9 14 20 19 20 20 19 19
30 30 30 31 31 31 32 33 33 33 31 22 13 8 1 4 10 8 16 7 17 23 11 8 5 5 6 6 4 10 25 23 17 11 7 16 10 7 17 20 19 18 12 15 15
31 32 32 32 33 33 34 35 34 35 30 16 6 2 2 17 6 8 7 13 24 23 5 11 17 2 5 10 4 25 22 14 14 11 7 14 7 7 18 20 20 17 13 11 10
33 31 32 33 34 35 36 36 38 33 19 7 3 3 8 12 15 18 16 13 19 21 16 18 12 4 5 6 7 8 12 8 6 14 10 10 5 10 20 19 17 18 16 14 11
34 34 33 34 35 37 39 37 36 15 4 4 2 3 10 14 4 17 15 11 16 18 20 16 6 7 5 2 5 6 8 13 6 5 9 6 8 12 14 17 17 17 16 16 12
35 34 35 36 36 38 41 38 12 2 5 2 2 3 7 4 8 15 12 24 4 2 4 4 3 2 3 4 4 4 8 17 14 10 4 11 8 19 16 15 17 15 13 13 15
35 36 36 37 36 40 40 12 4 2 3 6 8 8 18 12 18 11 15 7 4 4 5 4 3 6 9 8 6 4 8 14 11 11 7 15 13 19 16 14 15 13 11 13 15
36 37 38 38 36 36 11 2 4 6 11 11 17 17 28 14 9 13 21 7 6 7 4 4 7 11 6 5 6 4 7 9 1 10 7 13 18 18 19 20 18 16 14 15 9
36 37 38 39 37 6 16 12 20 24 5 10 14 12 14 11 15 19 12 8 5 7 6 7 8 6 5 8 5 6 8 10 11 5 7 11 1 9 14 14 14 13 18 19 18
37 38 41 40 6 21 12 15 23 17 3 9 5 9 8 10 7 11 20 9 5 14 5 6 13 9 8 8 6 8 10 14 9 15 7 7 5 7 16 15 11 12 15 17 18
39 39 39 27 19 8 10 21 27 2 4 5 6 4 9 10 3 6 23 5 11 7 8 9 10 12 11 16 7 12 8 11 11 15 7 3 5 11 8 9 11 13 20 20 20
40 39 36 15 12 26 17 29 4 5 7 7 5 6 7 7 6 6 8 5 6 4 3 10 7 8 11 18 10 13 5 6 5 5 2 12 7 4 10 25 20 11 19 19 19
45 36 35 21 7 4 15 5 4 4 5 6 5 7 8 7 8 7 14 11 14 7 9 4 16 12 10 7 8 4 6 2 2 1 6 8 9 12 20 24 17 20 22 21 21
43 39 29 28 22 10 8 4 5 10 16 4 11 14 4 2 8 9 8 13 11 5 3 9 11 14 6 11 11 8 10 6 7 3 6 9 7 11 17 25 20 19 25 22 20
41 27 19 20 13 14 4 3 9 7 3 3 6 6 3 3 3 9 11 16 16 11 14 6 8 8 11 12 10 9 4 10 7 1 3 4 8 7 8 16 16 15 16 20 21
30 13 13 9 19 14 3 7 7 5 7 8 2 4 7 5 7 10 11 13 17 13 9 8 5 8 14 5 7 16 7 3 3 7 4 5 4 6 5 11 11 12 14 17 19
8 5 6 13 23 4 4 7 6 9 11 4 4 8 12 16 15 12 16 12 24 20 13 13 5 15 2 6 11 2 3 4 6 5 6 3 6 7 16 17 17 16 17 14 17
9 4 10 30 3 3 3 5 4 10 8 9 6 14 12 16 24 15 21 14 23 25 12 10 7 14 18 12 8 9 10 7 6 5 2 5 6 5 13 12 17 17 13 10 18
5 4 11 12 3 3 6 8 8 10 11 7 9 14 13 14 12 9 7 9 9 25 20 12 6 8 9 7 3 8 6 7 5 5 7 6 5 2 6 4 8 10 8 9 12
3 4 4 4 2 2 5 7 9 7 11 11 19 19 13 14 7 5 6 6 3 24 31 14 6 10 15 9 5 6 8 7 8 5 6 6 5 4 7 10 8 11 12 10 10
3 4 1 4 3 9 3 5 13 15 7 4 10 2 6 8 6 4 5 7 2 7 22 11 10 7 9 18 10 15 14 9 6 9 9 8 11 10 11 13 12 11 10 10 10
2 3 4 4 7 5 5 2 11 13 8 7 5 8 9 3 4 2 0 2 5 8 4 6 8 10 17 9 8 8 6 11 8 5 1 7 7 10 12 9 8 13 9 8 6
9 8 1 5 5 4 1 10 17 17 8 2 1 3 3 5 11 9 8 6 7 4 4 10 7 5 9 7 7 4 5 5 1 4 5 7 12 11 5 7 9 9 10 10 10
Wind_Direction
355 355 355 354 351 348 347 347 347 346 346 344 343 346 344 329 313 282 240 246 245 251 274 261 287 283 276 257 121 119 100 260 219 152 208 164 125 151 124 134 160 193 142 158 163
351 350 350 350 349 346 344 344 344 343 344 341 339 342 343 330 315 254 269 262 250 241 248 220 256 264 161 243 173 158 140 204 235 177 155 139 133 142 131 148 113 118 135 148 154
348 346 345 346 345 343 341 340 341 342 341 340 335 336 341 329 312 247 334 255 224 217 239 251 273 121 187 184 198 208 220 158 207 147 145 115 117 78 135 143 147 153 149 154 154
348 344 342 341 341 339 338 337 338 338 339 336 331 334 335 336 277 237 333 255 196 206 232 234 249 166 260 260 181 153 213 149 194 163 140 161 99 93 152 157 151 148 143 152 159
346 343 339 338 337 336 335 332 334 334 334 330 327 334 350 316 248 260 287 324 188 207 213 204 273 176 245 274 350 202 127 150 161 152 126 117 95 109 117 136 144 143 146 151 159
345 342 339 336 335 333 331 329 329 330 327 322 320 334 305 272 275 294 261 243 190 201 209 182 218 193 283 269 40 151 135 150 147 136 122 118 135 93 136 140 146 154 145 159 165
345 342 339 336 333 331 328 325 327 326 318 305 300 11 260 240 284 301 223 210 198 208 206 214 231 165 347 324 351 142 131 135 152 153 124 101 71 120 144 150 152 156 160 168 172
342 342 340 335 332 329 327 322 325 321 308 273 199 123 248 267 305 263 262 259 222 220 229 250 246 243 200 261 345 149 116 134 226 149 166 93 151 133 147 151 159 164 174 180 186
341 339 338 335 332 330 325 322 323 322 316 149 124 129 269 306 222 239 233 209 212 226 243 268 268 217 292 107 356 321 149 137 156 257 138 110 144 165 158 156 165 177 183 181 182
344 338 335 334 332 332 324 324 329 52 97 101 259 338 271 246 290 216 206 212 177 186 335 216 166 173 39 91 227 219 102 161 170 176 108 137 169 166 172 169 176 182 188 182 179
343 341 334 330 330 332 327 340 359 24 172 230 239 233 273 271 311 212 215 159 158 112 185 251 119 216 232 199 196 211 138 179 195 151 125 156 160 175 177 183 191 185 174 174 177
344 341 337 328 328 324 318 248 226 347 299 246 248 245 255 255 289 272 221 172 143 202 176 305 222 229 228 215 233 217 194 191 193 161 112 164 171 181 181 195 194 185 174 173 154
342 340 338 330 328 350 322 270 327 339 242 257 227 232 239 184 235 252 165 182 153 196 207 189 242 222 221 268 280 285 194 199 190 146 74 128 176 188 204 198 204 197 182 174 163
340 341 340 335 336 328 289 323 327 337 326 283 235 243 211 174 272 222 193 157 215 200 197 206 246 241 234 244 186 270 218 215 168 157 160 177 207 240 196 196 205 188 183 185 173
337 337 334 338 298 304 307 323 330 63 321 251 238 206 138 152 230 202 180 116 199 185 141 231 220 228 238 239 189 241 218 200 168 175 107 191 103 213 138 209 216 198 196 186 179
336 331 327 318 286 280 299 330 347 47 254 291 199 178 106 153 242 170 166 125 170 200 213 212 250 179 220 247 227 246 254 49 54 98 136 206 158 249 187 208 210 219 198 191 184
335 320 310 279 229 282 309 341 60 174 306 277 31 17 175 168 222 168 182 186 201 171 223 303 243 248 217 242 272 159 69 312 327 132 204 195 191 234 208 216 203 199 194 193 186
331 319 305 274 269 268 275 64 207 222 229 289 340 330 280 165 223 217 171 197 220 131 167 218 255 226 216 191 221 201 156 156 195 256 261 136 211 245 201 206 202 195 192 191 183
330 322 291 278 229 188 107 181 203 204 239 337 12 302 268 252 247 214 180 206 210 176 205 173 247 263 223 225 163 244 146 188 138 84 70 256 300 330 192 195 188 179 174 189 188
328 311 278 260 169 142 101 232 227 211 320 330 169 243 275 292 315 209 208 195 207 193 166 219 269 246 254 191 246 193 178 93 0 166 202 281 260 229 189 182 192 192 184 186 190
332 333 306 174 143 62 197 229 266 265 289 253 225 265 275 292 283 276 220 223 196 207 172 197 145 262 23 213 216 89 132 65 122 140 162 226 269 218 199 187 187 199 208 171 181
354 325 84 147 106 190 214 224 242 259 287 286 278 264 270 298 302 269 220 201 192 203 199 197 175 236 248 249 238 169 174 148 142 230 155 166 263 261 183 184 181 200 200 186 184
320 265 283 242 269 253 277 269 259 265 247 253 256 267 279 285 280 239 200 218 210 202 202 198 210 236 297 330 345 184 169 145 110 93 184 142 254 134 56 116 170 163 188 193 177
306 322 312 26 304 344 5 287 284 272 272 280 279 276 289 272 247 280 283 273 215 205 209 162 146 193 226 214 187 201 174 161 142 142 174 203 191 150 176 166 167 169 164 178 174
220 248 303 320 311 324 272 273 294 304 272 255 294 74 338 272 293 322 322 324 299 251 215 162 187 159 215 223 215 211 194 160 151 183 171 216 180 203 186 177 180 173 169 170 182
310 9 343 277 281 299 281 285 325 309 262 276 254 341 344 297 280 269 316 304 278 325 248 175 222 156 226 235 221 172 205 170 152 138 10 159 211 198 195 155 167 174 161 153 165
338 335 84 280 309 319 20 332 310 316 301 92 291 320 24 314 294 233 227 227 233 273 294 155 147 123 215 157 121 89 132 231 307 54 182 176 221 154 156 180 166 158 157 153 147